This is the latest recevied weather packets stored in our database for station/object F5BCB-10. If no packets are shown the sender has not sent any weather packets the latest 10 day(s).
| Time | Temp. | Humidity | Pressure | Rain* | Wind** | Luminosity | Snow |
|---|---|---|---|---|---|---|---|
| 1777414162 | 23.89° C | 29% | 1015 hPa | - | - | - | - |
| 1777410557 | 24.44° C | 30% | 1015.4 hPa | - | - | - | - |
| 1777408755 | 23.89° C | 30% | 1015.5 hPa | - | - | - | - |
| 1777407854 | 23.89° C | 30% | 1015.6 hPa | - | - | - | - |
| 1777406953 | 23.89° C | 31% | 1015.6 hPa | - | - | - | - |
| 1777403349 | 23.89° C | 30% | 1015.1 hPa | - | - | - | - |
| 1777402449 | 23.33° C | 31% | 1015.2 hPa | - | - | - | - |
| 1777399748 | 23.33° C | 29% | 1015 hPa | - | - | - | - |
| 1777397046 | 23.33° C | 24% | 1015 hPa | - | - | - | - |
| 1777394344 | 23.33° C | 26% | 1015.1 hPa | - | - | - | - |
| 1777393443 | 23.33° C | 27% | 1015.1 hPa | - | - | - | - |
| 1777391642 | 23.89° C | 25% | 1015.2 hPa | - | - | - | - |
| 1777388040 | 24.44° C | 27% | 1015.7 hPa | - | - | - | - |
| 1777387138 | 23.89° C | 26% | 1015.8 hPa | - | - | - | - |
| 1777385337 | 23.89° C | 27% | 1016.1 hPa | - | - | - | - |
| 1777383535 | 23.89° C | 27% | 1016.5 hPa | - | - | - | - |
| 1777381733 | 23.33° C | 28% | 1016.7 hPa | - | - | - | - |
| 1777379930 | 23.33° C | 29% | 1017.1 hPa | - | - | - | - |
| 1777378129 | 22.78° C | 30% | 1017.4 hPa | - | - | - | - |
| 1777376328 | 22.78° C | 30% | 1017.7 hPa | - | - | - | - |
| 1777373626 | 22.78° C | 30% | 1018.1 hPa | - | - | - | - |
| 1777372725 | 22.78° C | 31% | 1018.2 hPa | - | - | - | - |
| 1777371824 | 22.78° C | 31% | 1018.3 hPa | - | - | - | - |
| 1777370924 | 22.78° C | 31% | 1018.5 hPa | - | - | - | - |
| 1777369123 | 22.22° C | 31% | 1018.6 hPa | - | - | - | - |
* Rain since midnight (hover to see other rain measurements)
** Current wind speed in m/s (hover to see current wind gust speed)